Camarillo, CA

1:13 PM PDT on May 23, 2017 (GMT -0700)
Camarillo

Weather History for KCMA - November, 2011

Change the Weather History Date:

Tuesday, November 22, 2011

  Actual Average Record
Temperature  
Mean Temperature 56 °F 57 °F  
Max Temperature 68 °F 69 °F 90 °F (2015)
Min Temperature 43 °F 45 °F 35 °F (1961)
Degree Days  
Heating Degree Days 9 8  
Month to date heating degree days 143 138  
Since 1 July heating degree days 181 261  
Cooling Degree Days 0 0  
Month to date cooling degree days 15 13  
Year to date cooling degree days 492 329  
Growing Degree Days 4 (Base 50)    
Moisture  
Dew Point 45 °F    
Average Humidity 69    
Maximum Humidity 89    
Minimum Humidity 48    
Precipitation  
Precipitation 0.00 in 0.04 in 1.50 in (1965)
Month to date precipitation 1.80 1.07  
Year to date precipitation 13.01 12.92  
Since 1 July precipitation 2.78  
Sea Level Pressure  
Sea Level Pressure 30.23 in    
Wind  
Wind Speed 2 mph (WNW)    
Max Wind Speed 12 mph    
Max Gust Speed 14 mph    
Visibility 10 miles    
Events      
T = Trace of Precipitation, MM = Missing Value Source: NWS Daily Summary

Daily Weather History Graph

Daily Weather History Graph

Search for Another Location

Airport or City:

Trip Planner

Search our weather history database for the weather conditions in past years. The results will help you decide how hot, cold, wet, or windy it might be!

Date:

Astronomy

Nov. 22, 2011 Rise Set
Actual Time 6:35 AM PST 4:48 PM PST
Civil Twilight 6:08 AM PST 5:15 PM PST
Nautical Twilight 5:38 AM PST 5:46 PM PST
Astronomical Twilight 5:08 AM PST 6:16 PM PST
Moon 3:37 AM PST (11/22) 2:47 PM PST (11/22)
Length of Visible Light 11h 07m
Length of Day
10h 13m
Waning Crescent, 9% of the Moon is Illuminated
Nov 22
Waning Crescent
Nov 24
New
Dec 2
First Quarter
Dec 10
Full
Dec 17
Last Quarter

Hourly Weather History & Observations

Time (PST) Temp. Windchill Dew Point Humidity Pressure Visibility Wind Dir Wind Speed Gust Speed Precip Events Conditions
12:55 AM 46.9 °F - 41.0 °F 80% 30.29 in 10.0 mi NE 3.5 mph - N/A   Clear
1:55 AM 46.0 °F - 42.1 °F 86% 30.29 in 10.0 mi Calm Calm - N/A   Clear
2:55 AM 46.0 °F - 41.0 °F 83% 30.28 in 10.0 mi Calm Calm - N/A   Clear
3:55 AM 46.0 °F - 41.0 °F 83% 30.27 in 10.0 mi Calm Calm - N/A   Clear
4:55 AM 43.0 °F 41.3 °F 39.0 °F 86% 30.27 in 10.0 mi NW 3.5 mph - N/A   Clear
5:55 AM 45.0 °F - 39.9 °F 82% 30.28 in 10.0 mi Calm Calm - 0.01 in   Clear
7:55 AM 50.0 °F - 43.0 °F 77% 30.31 in 10.0 mi Calm Calm - N/A   Clear
8:55 AM 54.0 °F - 45.0 °F 72% 30.31 in 10.0 mi Calm Calm - N/A   Clear
10:55 AM 64.0 °F - 45.0 °F 50% 30.27 in 10.0 mi Calm Calm - N/A   Clear
11:55 AM 66.0 °F - 46.0 °F 48% 30.23 in 10.0 mi Calm Calm - N/A   Clear
12:55 PM 64.9 °F - 51.1 °F 61% 30.21 in 10.0 mi West 9.2 mph - N/A   Clear
1:55 PM 66.0 °F - 51.1 °F 59% 30.19 in 10.0 mi West 9.2 mph - N/A   Clear
2:55 PM 64.9 °F - 51.1 °F 61% 30.17 in 10.0 mi WSW 5.8 mph - N/A   Clear
3:55 PM 63.0 °F - 51.1 °F 65% 30.17 in 10.0 mi WSW 4.6 mph - N/A   Clear
6:55 PM 57.0 °F - 50.0 °F 77% 30.17 in 10.0 mi Calm Calm - N/A   Clear
7:55 PM 54.0 °F - 48.9 °F 83% 30.17 in 10.0 mi Calm Calm - N/A   Clear
8:55 PM 53.1 °F - 48.0 °F 83% 30.17 in 10.0 mi ENE 5.8 mph - N/A   Clear
9:55 PM 50.0 °F - 46.0 °F 86% 30.17 in 10.0 mi Calm Calm - N/A   Clear
11:55 PM 48.9 °F - 44.1 °F 83% 30.13 in 10.0 mi Calm Calm - N/A   Clear